This is the latest recevied weather packets stored in our database for station/object LU3HGB-WX. If no packets are shown the sender has not sent any weather packets the latest 10 day(s).
| Time | Temp. | Humidity | Pressure | Rain* | Wind** | Luminosity | Snow |
|---|---|---|---|---|---|---|---|
| 1777307860 | 16.67° C | 36% | 1020 hPa | 0 mm | - | 730 W/m² | - |
| 1777307562 | 16.11° C | 30% | 1020 hPa | 0 mm | - | 734 W/m² | - |
| 1777307259 | 16.11° C | 30% | 1020 hPa | 0 mm | - | 733 W/m² | - |
| 1777306693 | 15.56° C | 34% | 1020 hPa | 0 mm | - | 734 W/m² | - |
| 1777306360 | 15.56° C | 31% | 1020 hPa | 0 mm | - | 736 W/m² | - |
| 1777306060 | 15.56° C | 31% | 1020 hPa | 0 mm | - | 733 W/m² | - |
| 1777305759 | 15.56° C | 33% | 1020 hPa | 0 mm | - | 734 W/m² | - |
| 1777305461 | 15.56° C | 33% | 1020 hPa | 0 mm | - | 730 W/m² | - |
| 1777305159 | 15.56° C | 29% | 1021 hPa | 0 mm | - | 726 W/m² | - |
| 1777304860 | 15° C | 35% | 1021 hPa | 0 mm | - | 721 W/m² | - |
| 1777304560 | 15° C | 34% | 1021 hPa | 0 mm | - | 718 W/m² | - |
| 1777304260 | 14.44° C | 32% | 1021 hPa | 0 mm | - | 709 W/m² | - |
| 1777303959 | 14.44° C | 34% | 1021 hPa | 0 mm | - | 703 W/m² | - |
| 1777303660 | 14.44° C | 36% | 1021 hPa | 0 mm | - | 701 W/m² | - |
| 1777303360 | 13.89° C | 35% | 1021 hPa | 0 mm | - | 695 W/m² | - |
| 1777303060 | 13.89° C | 36% | 1021 hPa | 0 mm | - | 689 W/m² | - |
| 1777302760 | 13.33° C | 37% | 1021 hPa | 0 mm | - | 682 W/m² | - |
| 1777302460 | 13.33° C | 38% | 1021 hPa | 0 mm | - | 670 W/m² | - |
| 1777302161 | 13.33° C | 38% | 1021 hPa | 0 mm | - | 665 W/m² | - |
| 1777301861 | 13.33° C | 40% | 1021 hPa | 0 mm | - | 655 W/m² | - |
| 1777301559 | 13.33° C | 39% | 1021 hPa | 0 mm | - | 650 W/m² | - |
| 1777301268 | 13.33° C | 43% | 1021 hPa | 0 mm | - | 542 W/m² | - |
| 1777300960 | 12.78° C | 38% | 1021 hPa | 0 mm | - | 641 W/m² | - |
| 1777300661 | 12.78° C | 38% | 1022 hPa | 0 mm | - | 289 W/m² | - |
| 1777300360 | 12.78° C | 40% | 1022 hPa | 0 mm | - | 246 W/m² | - |
* Rain latest hour (hover to see other rain measurements)
** Current wind speed in m/s (hover to see current wind gust speed)